Latest Weather Observations for Gayndah

IDQ60801

Issued at 9:02 pm EST Monday 2 March 2015 (issued every 30 minutes, with the page automatically refreshed every 10 minutes)

About weather observations | Map of weather stations | Latest weather observations for QLD | Other Formats
Station Details ID: 039066 Name: GAYNDAH AIRPORT Lat: -25.62 Lon: 151.62 Height: 110.9 m
Data from the previous 72 hours. | See also: Recent months at Gayndah
Date/Time
EST
Temp
°C
App
Temp
°C
Dew
Point
Rel
Hum
%
Delta-T
°C
Wind Press
QNH
hPa
Press
MSL
hPa
Rain
since 9 am
mm
Dir
 
Spd
km/h
Gust
km/h
Spd
kts
Gust
kts
02/09:00pm 24.6 26.9 19.9 75 3.0 ENE 7 13 4 7 1013.8 1013.3 0.0
02/08:30pm 25.2 27.2 20.0 73 3.4 ENE 9 15 5 8 1013.4 1012.9 0.0
02/08:00pm 25.8 27.3 19.7 69 4.0 E 11 20 6 11 1012.9 1012.4 0.0
02/07:30pm 25.9 27.1 20.0 70 3.8 ENE 13 17 7 9 1012.3 1011.8 0.0
02/07:00pm 26.6 27.3 20.4 69 4.1 E 17 22 9 12 1011.8 1011.2 0.0
02/06:30pm 27.6 27.9 20.7 66 4.6 E 20 28 11 15 1011.3 1010.7 0.0
02/06:00pm 28.5 29.8 20.8 63 5.1 E 15 24 8 13 1010.7 1010.1 0.0
02/05:30pm 29.2 29.0 19.8 57 6.2 E 20 30 11 16 1009.9 1009.3 0.0
02/05:00pm 31.3 32.0 19.6 49 7.7 E 15 22 8 12 1009.5 1008.9 0.0
02/04:30pm 31.5 32.6 20.4 51 7.4 E 15 20 8 11 1009.3 1008.7 0.0
02/04:00pm 30.7 31.2 20.0 52 7.1 E 17 24 9 13 1009.4 1008.8 0.0
02/03:30pm 31.4 31.8 20.7 53 7.2 E 19 24 10 13 1009.4 1008.8 0.0
02/03:00pm 31.1 31.0 20.7 54 7.0 E 22 33 12 18 1009.4 1008.8 0.0
02/02:30pm 32.6 34.1 19.8 46 8.5 ESE 11 17 6 9 1009.2 1008.6 0.0
02/02:00pm 31.8 34.4 20.4 51 7.6 ESE 7 17 4 9 1009.7 1009.1 0.0
02/01:30pm 31.4 33.6 20.4 52 7.3 S 9 19 5 10 1010.2 1009.6 0.0
02/01:00pm 31.2 32.5 20.2 52 7.3 SE 13 22 7 12 1010.8 1010.2 0.0
02/12:30pm 30.5 32.3 21.9 60 5.8 ESE 15 24 8 13 1011.4 1010.8 0.0
02/12:00pm 30.2 31.6 21.0 58 6.2 ESE 15 22 8 12 1011.6 1011.0 0.0
02/11:30am 29.3 31.8 21.0 61 5.5 ESE 9 17 5 9 1011.9 1011.4 0.0
02/11:00am 29.0 32.2 21.2 62 5.2 SE 6 13 3 7 1012.1 1011.6 0.0
02/10:30am 28.7 31.3 21.2 64 5.0 S 9 15 5 8 1012.4 1011.9 0.0
02/10:00am 28.5 31.6 21.5 66 4.7 S 7 11 4 6 1012.6 1012.1 0.0
02/09:30am 28.0 31.7 21.5 67 4.4 E 4 9 2 5 1012.7 1012.2 0.0
02/09:00am 26.9 30.7 21.0 70 3.9 SSE 2 6 1 3 1012.8 1012.3 0.0
02/08:30am 26.7 30.4 20.8 70 3.9 E 2 4 1 2 1012.7 1012.2 0.0
02/08:00am 26.3 29.9 21.3 74 3.3 N 4 7 2 4 1012.2 1011.7 0.0
02/07:30am 25.5 29.8 21.2 77 2.9 CALM 0 0 0 0 1012.0 1011.5 0.0
02/07:00am 25.0 29.3 21.1 79 2.6 CALM 0 0 0 0 1011.7 1011.1 0.0
02/06:30am 23.8 28.4 21.7 88 1.4 CALM 0 0 0 0 1011.4 1010.8 0.0
02/06:00am 23.1 27.6 21.5 91 1.1 CALM 0 0 0 0 1011.2 1010.6 0.0
02/05:30am 23.0 27.5 21.6 92 0.9 CALM 0 0 0 0 1010.8 1010.2 0.0
02/05:00am 22.7 27.2 21.5 93 0.8 CALM 0 0 0 0 1010.6 1010.0 0.0
02/04:30am 22.3 26.6 21.1 93 0.8 CALM 0 0 0 0 1010.1 1009.5 0.0
02/04:00am 22.0 26.1 20.8 93 0.8 CALM 0 0 0 0 1009.7 1009.1 0.0
02/03:30am 21.9 26.0 20.7 93 0.8 CALM 0 0 0 0 1009.5 1008.9 0.0
02/03:00am 22.2 25.9 20.8 92 0.9 ESE 2 2 1 1 1009.4 1008.8 0.0
02/02:30am 22.4 26.6 20.9 91 1.0 CALM 0 0 0 0 1009.4 1008.8 0.0
02/02:00am 22.4 26.6 20.9 91 1.0 CALM 0 0 0 0 1009.4 1008.8 0.0
02/01:30am 22.5 25.6 21.0 91 1.0 ESE 6 7 3 4 1009.4 1008.8 0.0
02/01:00am 22.5 25.7 20.6 89 1.2 E 4 6 2 3 1009.6 1009.0 0.0
02/12:30am 22.8 25.7 20.7 88 1.4 ENE 6 7 3 4 1009.8 1009.2 0.0
02/12:00am 23.2 26.0 20.9 87 1.5 ENE 7 9 4 5 1010.1 1009.5 0.0
 
Date/Time
EST
Temp
°C
App
Temp
°C
Dew
Point
Rel
Hum
%
Delta-T
°C
Wind Press
QNH
hPa
Press
MSL
hPa
Rain
since 9 am
mm
Dir
 
Spd
km/h
Gust
km/h
Spd
kts
Gust
kts
01/11:30pm 23.4 26.2 20.9 86 1.6 NE 7 9 4 5 1010.2 1009.6 0.0
01/11:00pm 24.0 26.1 20.9 83 2.0 ENE 11 13 6 7 1010.7 1010.1 0.0
01/10:30pm 24.0 26.2 20.3 80 2.4 NE 9 13 5 7 1010.7 1010.1 0.0
01/10:00pm 24.4 26.4 19.9 76 2.9 NE 9 13 5 7 1010.5 1009.9 0.0
01/09:30pm 24.4 26.2 19.5 74 3.2 NE 9 13 5 7 1010.2 1009.6 0.0
01/09:00pm 25.4 27.2 19.5 70 3.8 ENE 9 13 5 7 1010.0 1009.4 0.0
01/08:30pm 26.2 27.3 19.6 67 4.3 NE 13 24 7 13 1009.4 1008.8 0.0
01/08:00pm 26.4 27.3 20.0 68 4.2 NE 15 20 8 11 1008.3 1007.7 0.0
01/07:30pm 26.2 29.8 21.2 74 3.3 NNE 4 6 2 3 1007.8 1007.2 0.0
01/07:00pm 27.3 31.2 20.4 66 4.6 CALM 0 0 0 0 1008.0 1007.4 0.0
01/06:30pm 28.5 31.8 19.2 57 6.0 CALM 0 0 0 0 1008.0 1007.4 0.0
01/06:00pm 29.5 32.1 19.2 54 6.7 NE 4 6 2 3 1007.5 1006.9 0.0
01/05:30pm 30.8 32.8 18.8 48 7.8 ENE 6 7 3 4 1007.3 1006.7 0.0
01/05:00pm 31.2 33.4 19.2 48 7.9 NE 6 7 3 4 1007.2 1006.6 0.0
01/04:30pm 31.4 33.2 18.4 46 8.4 N 6 13 3 7 1007.2 1006.6 0.0
01/04:00pm 31.3 33.1 18.3 46 8.4 E 6 9 3 5 1007.3 1006.7 0.0
01/03:30pm 31.9 34.3 18.8 45 8.6 NNW 4 9 2 5 1007.4 1006.8 0.0
01/03:00pm 31.1 32.7 17.8 45 8.6 NNE 6 11 3 6 1007.7 1007.1 0.0
01/02:30pm 31.0 33.4 18.7 48 8.0 NNE 4 11 2 6 1007.9 1007.3 0.0
01/02:00pm 30.6 33.0 18.7 49 7.7 NE 4 6 2 3 1008.3 1007.7 0.0
01/01:30pm 30.6 33.0 19.6 51 7.2 NNW 6 9 3 5 1008.6 1008.0 0.0
01/01:00pm 29.8 31.9 18.9 52 7.1 N 6 11 3 6 1009.1 1008.5 0.0
01/12:30pm 29.7 32.0 19.4 54 6.7 N 6 9 3 5 1009.4 1008.8 0.0
01/12:00pm 29.4 31.4 18.8 53 6.9 NNW 6 13 3 7 1009.8 1009.2 0.0
01/11:30am 29.0 31.8 19.6 57 6.2 S 4 7 2 4 1010.3 1009.7 0.0
01/11:00am 28.2 30.2 19.2 58 5.9 NNE 7 13 4 7 1010.6 1010.0 0.0
01/10:30am 27.7 30.3 19.2 60 5.5 NNW 4 9 2 5 1011.2 1010.6 0.0
01/10:00am 27.4 30.1 19.5 62 5.1 NW 4 9 2 5 1011.4 1010.8 0.0
01/09:30am 26.4 28.6 19.3 65 4.6 N 6 13 3 7 1011.5 1010.9 0.0
01/09:00am 26.5 29.4 20.6 70 3.9 NE 6 9 3 5 1011.6 1011.0 0.0
01/08:30am 25.4 28.5 20.2 73 3.4 ENE 4 6 2 3 1011.4 1010.8 0.0
01/08:00am 24.5 27.8 20.0 76 2.9 NE 2 7 1 4 1011.1 1010.5 0.0
01/07:30am 23.6 27.5 20.3 82 2.1 CALM 0 0 0 0 1010.9 1010.3 0.0
01/07:00am 22.6 26.1 20.3 87 1.5 WSW 2 4 1 2 1010.7 1010.1 0.0
01/06:30am 21.5 25.5 20.5 94 0.6 CALM 0 0 0 0 1010.5 1009.8 0.0
01/06:00am 20.2 23.6 19.4 95 0.5 CALM 0 0 0 0 1010.2 1009.5 0.0
01/05:30am 20.4 23.8 19.4 94 0.6 CALM 0 0 0 0 1009.9 1009.2 0.0
01/05:00am 20.9 24.5 19.7 93 0.8 CALM 0 0 0 0 1009.6 1008.9 0.0
01/04:30am 21.2 25.0 20.2 94 0.6 CALM 0 0 0 0 1009.6 1008.9 0.0
01/04:00am 21.1 24.8 19.9 93 0.8 CALM 0 0 0 0 1009.6 1008.9 0.0
01/03:30am 21.4 25.1 20.0 92 0.9 CALM 0 0 0 0 1009.5 1008.8 0.0
01/03:00am 21.5 25.3 20.1 92 0.9 CALM 0 0 0 0 1009.5 1008.8 0.0
01/02:30am 21.7 25.1 20.2 91 1.0 ENE 2 4 1 2 1009.4 1008.7 0.0
01/02:00am 21.7 25.1 20.2 91 1.0 ENE 2 4 1 2 1009.8 1009.1 0.0
01/01:30am 22.2 25.7 20.3 89 1.2 ENE 2 4 1 2 1010.1 1009.4 0.0
01/01:00am 22.2 25.2 20.1 88 1.4 NE 4 6 2 3 1010.3 1009.6 0.0
01/12:30am 22.3 26.1 20.2 88 1.4 CALM 0 0 0 0 1010.7 1010.1 0.0
01/12:00am 22.4 25.4 20.1 87 1.5 ENE 4 6 2 3 1010.9 1010.3 0.0
 
Date/Time
EST
Temp
°C
App
Temp
°C
Dew
Point
Rel
Hum
%
Delta-T
°C
Wind Press
QNH
hPa
Press
MSL
hPa
Rain
since 9 am
mm
Dir
 
Spd
km/h
Gust
km/h
Spd
kts
Gust
kts
28/11:30pm 22.8 25.3 20.3 86 1.6 E 7 11 4 6 1010.9 1010.3 0.0
28/11:00pm 23.2 25.7 20.2 83 1.9 NE 7 9 4 5 1010.9 1010.3 0.0
28/10:30pm 23.8 26.3 20.3 81 2.3 ENE 7 9 4 5 1010.9 1010.3 0.0
28/10:00pm 24.9 25.7 20.6 77 2.8 NE 17 24 9 13 1010.7 1010.1 0.0
28/09:30pm 25.1 26.6 20.6 76 3.0 NE 13 19 7 10 1010.8 1010.2 0.0
28/09:00pm 25.4 26.0 20.2 73 3.4 NE 17 22 9 12 1010.5 1009.8 0.0
28/08:30pm 25.9 26.4 20.0 70 3.8 NE 17 26 9 14 1010.2 1009.5 0.0
28/08:00pm 26.4 26.4 19.8 67 4.3 NE 19 28 10 15 1009.6 1008.9 0.0
28/07:30pm 27.0 26.3 19.6 64 4.8 NE 22 33 12 18 1009.1 1008.4 0.0
28/07:00pm 27.7 28.7 19.5 61 5.3 NE 13 22 7 12 1008.7 1008.0 0.0
28/06:30pm 28.5 29.8 19.2 57 6.0 NE 11 17 6 9 1008.2 1007.5 0.0
28/06:00pm 30.0 30.3 18.8 51 7.3 ENE 15 20 8 11 1007.9 1007.2 0.0
28/05:30pm 30.7 31.9 19.1 50 7.6 ENE 11 15 6 8 1007.7 1007.0 0.0
28/05:00pm 31.0 32.8 18.7 48 8.0 NE 7 11 4 6 1007.4 1006.7 0.0
28/04:30pm 31.4 32.7 18.4 46 8.4 E 9 15 5 8 1007.3 1006.6 0.0
28/04:00pm 31.5 33.5 18.8 46 8.3 ENE 6 7 3 4 1007.4 1006.7 0.0
28/03:30pm 31.4 33.1 18.0 44 8.6 NE 6 11 3 6 1007.4 1006.7 0.0
28/03:00pm 31.3 33.2 18.6 46 8.3 NE 6 9 3 5 1007.6 1006.9 0.0
28/02:30pm 31.1 32.7 19.1 48 7.9 NE 9 19 5 10 1007.9 1007.2 0.0
28/02:00pm 30.0 31.8 18.4 49 7.5 N 6 11 3 6 1008.2 1007.5 0.0
28/01:30pm 30.4 32.4 18.8 50 7.5 NE 6 15 3 8 1008.6 1007.9 0.0
28/01:00pm 30.1 31.9 18.8 50 7.4 ENE 7 13 4 7 1009.1 1008.4 0.0
28/12:30pm 29.8 32.0 18.3 50 7.4 ESE 4 7 2 4 1009.5 1008.8 0.0
28/12:00pm 29.2 31.4 19.2 54 6.5 NNE 6 15 3 8 1010.0 1009.3 0.0
28/11:30am 28.7 30.3 19.1 56 6.2 NE 9 13 5 7 1010.3 1009.6 0.0
28/11:00am 28.3 30.3 18.7 56 6.2 N 6 9 3 5 1010.6 1009.9 0.0
28/10:30am 27.7 29.9 19.2 60 5.5 NE 6 11 3 6 1010.9 1010.3 0.0
28/10:00am 27.3 29.6 19.4 62 5.1 E 6 11 3 6 1011.1 1010.5 0.0
28/09:30am 26.7 28.9 19.1 63 4.9 NE 6 9 3 5 1011.2 1010.6 0.0
28/09:00am 26.6 29.3 20.2 68 4.2 ENE 6 9 3 5 1011.3 1010.7 0.0
28/08:30am 26.4 29.0 21.2 73 3.5 ENE 9 15 5 8 1011.1 1010.5 0.0
28/08:00am 25.4 28.3 20.6 75 3.2 ENE 6 13 3 7 1010.9 1010.3 0.0
28/07:30am 24.4 27.4 20.1 77 2.8 ENE 4 7 2 4 1010.6 1009.9 0.0
28/07:00am 23.6 27.4 20.1 81 2.3 CALM 0 0 0 0 1010.4 1009.7 0.0
28/06:30am 23.0 27.3 21.1 89 1.2 CALM 0 0 0 0 1010.1 1009.4 0.0
28/06:00am 21.4 25.3 20.4 94 0.6 CALM 0 0 0 0 1009.9 1009.2 0.0
28/05:30am 21.1 24.7 19.7 92 0.9 CALM 0 0 0 0 1009.7 1009.0 0.0
28/05:00am 21.7 25.4 20.0 90 1.1 CALM 0 0 0 0 1009.4 1008.7 0.0
28/04:30am 21.9 25.8 20.4 91 1.0 CALM 0 0 0 0 1009.5 1008.8 0.0
28/04:00am 21.8 25.7 20.4 92 0.9 CALM 0 0 0 0 1009.2 1008.5 0.0
28/03:30am 21.5 25.2 20.0 91 1.0 CALM 0 0 0 0 1008.9 1008.2 0.0
28/03:00am 21.5 25.2 20.0 91 1.0 CALM 0 0 0 0 1009.1 1008.4 0.0
28/02:30am 21.5 24.3 19.6 89 1.2 E 4 6 2 3 1009.2 1008.5 0.0
28/02:00am 22.0 24.9 19.9 88 1.4 NE 4 6 2 3 1009.1 1008.4 0.0
28/01:30am 22.1 25.0 19.8 87 1.5 E 4 4 2 2 1009.4 1008.7 0.0
28/01:00am 22.4 25.3 19.8 85 1.7 NE 4 6 2 3 1009.6 1008.9 0.0
28/12:30am 22.9 24.9 19.9 83 1.9 E 9 13 5 7 1009.8 1009.1 0.0
28/12:00am 22.8 24.9 20.1 85 1.8 ENE 9 13 5 7 1009.5 1008.8 0.0
 
Date/Time
EST
Temp
°C
App
Temp
°C
Dew
Point
Rel
Hum
%
Delta-T
°C
Wind Press
QNH
hPa
Press
MSL
hPa
Rain
since 9 am
mm
Dir
 
Spd
km/h
Gust
km/h
Spd
kts
Gust
kts
27/11:30pm 23.8 25.6 20.3 81 2.3 ENE 11 17 6 9 1009.4 1008.7 0.0
27/11:00pm 23.8 26.0 20.5 82 2.2 NE 9 13 5 7 1009.3 1008.6 0.0
27/10:30pm 23.7 25.0 20.2 81 2.3 NE 13 15 7 8 1009.3 1008.6 0.0
27/10:00pm 23.7 25.1 19.6 78 2.6 NE 11 15 6 8 1009.4 1008.7 0.0
27/09:30pm 24.3 25.9 19.1 73 3.3 NE 9 13 5 7 1009.4 1008.7 0.0

Other Formats:

Comma delimited format used in spreadsheet applications
http://www.bom.gov.au/fwo/IDQ60801/IDQ60801.95543.axf

JavaScript Object Notation format (JSON) in row-major order
http://www.bom.gov.au/fwo/IDQ60801/IDQ60801.95543.json